This is the latest recevied weather packets stored in our database for station/object OE6JVE-13. If no packets are shown the sender has not sent any weather packets the latest 10 day(s).
| Time | Temp. | Humidity | Pressure | Rain* | Wind** | Luminosity | Snow |
|---|---|---|---|---|---|---|---|
| 1777991163 | 20° C | 42% | 1003.5 hPa | 0 mm | - | - | - |
| 1777990570 | 20.56° C | 42% | 1003.5 hPa | 0 mm | - | - | - |
| 1777989979 | 20.56° C | 42% | 1003.5 hPa | 0 mm | - | - | - |
| 1777989321 | 20.56° C | 42% | 1003.4 hPa | 0 mm | - | - | - |
| 1777988729 | 20.56° C | 42% | 1003.6 hPa | 0 mm | - | - | - |
| 1777988137 | 20.56° C | 43% | 1003.6 hPa | 0 mm | - | - | - |
| 1777987549 | 20.56° C | 42% | 1003.6 hPa | 0 mm | - | - | - |
| 1777986952 | 20.56° C | 42% | 1003.7 hPa | 0 mm | - | - | - |
| 1777986360 | 20.56° C | 42% | 1003.6 hPa | 0 mm | - | - | - |
| 1777985768 | 20° C | 42% | 1003.7 hPa | 0 mm | - | - | - |
| 1777985176 | 20° C | 41% | 1003.8 hPa | 0 mm | - | - | - |
| 1777984518 | 20.56° C | 41% | 1003.8 hPa | 0 mm | - | - | - |
| 1777983926 | 20.56° C | 41% | 1003.8 hPa | 0 mm | - | - | - |
| 1777983334 | 21.11° C | 41% | 1003.8 hPa | 0 mm | - | - | - |
| 1777982742 | 21.11° C | 41% | 1003.9 hPa | 0 mm | - | - | - |
| 1777982150 | 21.67° C | 41% | 1003.7 hPa | 0 mm | - | - | - |
| 1777981558 | 22.22° C | 37% | 1003.6 hPa | 0 mm | - | - | - |
| 1777980966 | 22.78° C | 37% | 1003.5 hPa | 0 mm | - | - | - |
| 1777980374 | 22.78° C | 35% | 1003.3 hPa | 0 mm | - | - | - |
| 1777979716 | 22.78° C | 33% | 1003.2 hPa | 0 mm | - | - | - |
| 1777979124 | 23.33° C | 31% | 1003.2 hPa | 0 mm | - | - | - |
| 1777978532 | 23.33° C | 30% | 1003.1 hPa | 0 mm | - | - | - |
| 1777977940 | 24.44° C | 30% | 1003 hPa | 0 mm | - | - | - |
| 1777977348 | 24.44° C | 30% | 1003 hPa | 0 mm | - | - | - |
| 1777976755 | 24.44° C | 28% | 1003.1 hPa | 0 mm | - | - | - |
* Rain latest hour (hover to see other rain measurements)
** Current wind speed in m/s (hover to see current wind gust speed)